Hourly Data Report for September 29, 2018

SHEARWATER RCS
NOVA SCOTIA
Current Station Operator: ECCC - MSC

44°37'47.000" N
63°30'48.000" W
24.00 m
8205092
71264
AAW

Download Data

Hourly Data (September 2018)
Hourly Data Report for September 29, 2018
TIME Temp Definition
°C
Dew Point Definition
°C
Rel Hum Definition
%
Wind Dir Definition
10's deg

Wind Spd Definition
km/h
Visibility Definition
km
Stn Press Definition
kPa
Hmdx Definition


Wind Chill Definition


Weather Definition


00:00 13.8 13.0 95 33 8   101.22     LegendNANA
01:00 13.2 12.4 95 33 8   101.18     LegendNANA
02:00 12.7 12.0 95 31 7   101.15     LegendNANA
03:00 12.6 11.9 96 31 6   101.17     LegendNANA
04:00 12.2 11.6 96 32 8   101.20     LegendNANA
05:00 12.3 11.5 95 33 8   101.21     LegendNANA
06:00 12.2 11.2 94 34 9   101.25     LegendNANA
07:00 12.0 11.0 94 35 13   101.31     LegendNANA
08:00 12.1 11.1 94 33 13   101.37     LegendNANA
09:00 12.7 11.4 92 33 14   101.42     LegendNANA
10:00 13.8 11.7 87 35 13   101.45     LegendNANA
11:00 15.8 12.3 80 33 12   101.40     LegendNANA
12:00 17.1 12.2 73 30 10   101.36     LegendNANA
13:00 18.6 11.2 62 28 10   101.34     LegendNANA
14:00 19.7 10.7 56 30 14   101.34     LegendNANA
15:00 20.3 12.1 59 32 14   101.37     LegendNANA
16:00 19.6 11.6 60 32 15   101.41     LegendNANA
17:00 18.3 11.4 64 33 17   101.45     LegendNANA
18:00 16.1 11.6 74 33 14   101.57     LegendNANA
19:00 14.6 11.2 80 34 9   101.67     LegendNANA
20:00 13.7 11.2 85 33 11   101.72     LegendNANA
21:00 12.9 10.8 87 33 13   101.77     LegendNANA
22:00 11.8 10.4 91 32 11   101.82     LegendNANA
23:00 11.2 10.1 93 32 10   101.85     LegendNANA

Notes on Data Quality.

Legend

  • E = Estimated
  • M = Missing
  • NA = Not Available*
  • [empty] = Indicates an unobserved value
Date modified: